Weather History for Tampa Knight Airport, FL

Change the Weather History Date:

Saturday, March 15, 2014

  Actual Average (KTPA) Record (KTPA)
Temperature  
Mean Temperature 66 °F 67 °F  
Max Temperature 78 °F 76 °F 88 °F (1897)
Min Temperature 55 °F 58 °F 35 °F (1993)
Degree Days  
Heating Degree Days 0 2  
Month to date heating degree days 36  
Since 1 July heating degree days 507  
Cooling Degree Days 2 4  
Month to date cooling degree days 54  
Year to date cooling degree days 167  
Growing Degree Days 16 (Base 50)    
Moisture  
Dew Point 52 °F    
Average Humidity 63    
Maximum Humidity 88    
Minimum Humidity 36    
Precipitation  
Precipitation 0.00 in 0.10 in 2.30 in (1986)
Month to date precipitation 1.44  
Year to date precipitation 6.48  
Sea Level Pressure  
Sea Level Pressure 30.12 in    
Wind  
Wind Speed 4 mph (SSE)    
Max Wind Speed 9 mph    
Max Gust Speed -    
Visibility 10 miles    
Events      
T = Trace of Precipitation, MM = Missing Value Source: NWS Daily Summary

Daily Weather History Graph

Daily Weather History Graph

Search for Another Location

Airport:

Trip Planner

Search our weather history database for the weather conditions in past years. The results will help you decide how hot, cold, wet, or windy it might be!

Date:

Astronomy

Mar. 15, 2014 Rise Set
Actual Time 7:39 AM EDT 7:38 PM EDT
Civil Twilight 7:15 AM EDT 8:01 PM EDT
Nautical Twilight 6:48 AM EDT 8:29 PM EDT
Astronomical Twilight 6:21 AM EDT 8:56 PM EDT
Moon 6:57 PM EDT (3/15) 6:47 AM EDT (3/15)
Length of Visible Light 12h 45m
Length of Day
11h 59m
Waxing Gibbous, 99% of the Moon is Illuminated
Mar 15
Waxing Gibbous
Mar 16
Full
Mar 23
Last Quarter
Mar 30
New
Apr 7
First Quarter

Hourly Weather History & Observations

Time (EDT) Temp. Dew Point Humidity Pressure Visibility Wind Dir Wind Speed Gust Speed Precip Events Conditions
12:15 AM 60.8 °F 51.8 °F 72% 30.21 in 10.0 mi ESE 4.6 mph - N/A   Clear
12:35 AM 60.8 °F 51.8 °F 72% 30.19 in 10.0 mi SE 8.1 mph - N/A   Clear
12:55 AM 60.8 °F 51.8 °F 72% 30.19 in 10.0 mi ESE 4.6 mph - N/A   Clear
1:15 AM 60.8 °F 51.8 °F 72% 30.19 in 10.0 mi ESE 5.8 mph - N/A   Clear
1:35 AM 60.8 °F 51.8 °F 72% 30.18 in 10.0 mi SE 5.8 mph - N/A   Clear
1:55 AM 60.8 °F 51.8 °F 72% 30.17 in 10.0 mi ESE 5.8 mph - N/A   Clear
2:15 AM 60.8 °F 51.8 °F 72% 30.17 in 10.0 mi ESE 5.8 mph - N/A   Clear
2:35 AM 59.0 °F 51.8 °F 77% 30.17 in 10.0 mi ESE 3.5 mph - N/A   Clear
2:55 AM 57.2 °F 50.0 °F 77% 30.17 in 10.0 mi Calm Calm - N/A   Clear
3:15 AM 59.0 °F 51.8 °F 77% 30.15 in 10.0 mi ESE 3.5 mph - N/A   Clear
3:35 AM 59.0 °F 51.8 °F 77% 30.15 in 10.0 mi Calm Calm - N/A   Clear
3:55 AM 57.2 °F 50.0 °F 77% 30.15 in 10.0 mi Calm Calm - N/A   Clear
4:15 AM 55.4 °F 50.0 °F 82% 30.14 in 10.0 mi Calm Calm - N/A   Clear
4:35 AM 57.2 °F 51.8 °F 82% 30.13 in 10.0 mi SE 5.8 mph - N/A   Clear
4:55 AM 59.0 °F 51.8 °F 77% 30.13 in 10.0 mi SE 5.8 mph - N/A   Clear
5:15 AM 59.0 °F 51.8 °F 77% 30.12 in 10.0 mi SE 6.9 mph - N/A   Clear
5:35 AM 57.2 °F 51.8 °F 82% 30.13 in 10.0 mi ESE 4.6 mph - N/A   Clear
5:55 AM 57.2 °F 51.8 °F 82% 30.12 in 10.0 mi ESE 4.6 mph - N/A   Clear
6:15 AM 57.2 °F 51.8 °F 82% 30.13 in 10.0 mi Calm Calm - N/A   Clear
6:35 AM 55.4 °F 50.0 °F 82% 30.14 in 10.0 mi Calm Calm - N/A   Clear
6:55 AM 55.4 °F 51.8 °F 88% 30.13 in 10.0 mi Calm Calm - N/A   Clear
7:15 AM 55.4 °F 51.8 °F 88% 30.13 in 10.0 mi ENE 3.5 mph - N/A   Clear
7:35 AM 55.4 °F 50.0 °F 82% 30.15 in 10.0 mi East 3.5 mph - N/A   Clear
7:55 AM 55.4 °F 51.8 °F 88% 30.16 in 10.0 mi NNE 3.5 mph - N/A   Clear
8:15 AM 55.4 °F 51.8 °F 88% 30.17 in 7.0 mi NE 4.6 mph - N/A   Scattered Clouds
8:35 AM 59.0 °F 51.8 °F 77% 30.16 in 10.0 mi East 3.5 mph - N/A   Scattered Clouds
8:55 AM 60.8 °F 51.8 °F 72% 30.17 in 10.0 mi East 4.6 mph - N/A   Clear
9:15 AM 60.8 °F 51.8 °F 72% 30.17 in 10.0 mi ENE 4.6 mph - N/A   Clear
9:35 AM 62.6 °F 53.6 °F 72% 30.18 in 10.0 mi ENE 3.5 mph - N/A   Clear
9:55 AM 64.4 °F 53.6 °F 68% 30.19 in 10.0 mi Calm Calm - N/A   Clear
10:15 AM 68.0 °F 53.6 °F 60% 30.19 in 10.0 mi East 3.5 mph - N/A   Clear
10:35 AM 69.8 °F 53.6 °F 56% 30.18 in 10.0 mi East 4.6 mph - N/A   Clear
10:55 AM 69.8 °F 53.6 °F 56% 30.18 in 10.0 mi South 3.5 mph - N/A   Clear
11:15 AM 69.8 °F 51.8 °F 53% 30.18 in 10.0 mi South 4.6 mph - N/A   Clear
11:35 AM 71.6 °F 53.6 °F 53% 30.18 in 10.0 mi South 3.5 mph - N/A   Clear
11:55 AM 71.6 °F 53.6 °F 53% 30.18 in 10.0 mi South 3.5 mph - N/A   Clear
12:15 PM 71.6 °F 51.8 °F 50% 30.18 in 10.0 mi Calm Calm - N/A   Clear
12:35 PM 73.4 °F 51.8 °F 47% 30.17 in 10.0 mi SSW 5.8 mph - N/A   Clear
12:55 PM 73.4 °F 51.8 °F 47% 30.16 in 10.0 mi SW 3.5 mph - N/A   Clear
1:15 PM 73.4 °F 51.8 °F 47% 30.14 in 10.0 mi SW 3.5 mph - N/A   Clear
1:35 PM 73.4 °F 51.8 °F 47% 30.13 in 10.0 mi SSW 3.5 mph - N/A   Clear
1:55 PM 75.2 °F 51.8 °F 44% 30.12 in 10.0 mi South 5.8 mph - N/A   Clear
2:15 PM 75.2 °F 51.8 °F 44% 30.11 in 10.0 mi SSW 6.9 mph - N/A   Clear
2:35 PM 75.2 °F 51.8 °F 44% 30.10 in 10.0 mi SW 6.9 mph - N/A   Clear
2:55 PM 77.0 °F 50.0 °F 39% 30.09 in 10.0 mi SSW 4.6 mph - N/A   Clear
3:15 PM 77.0 °F 51.8 °F 41% 30.08 in 10.0 mi SW 3.5 mph - N/A   Clear
3:35 PM 77.0 °F 51.8 °F 41% 30.07 in 10.0 mi SW 6.9 mph - N/A   Clear
3:55 PM 77.0 °F 51.8 °F 41% 30.06 in 10.0 mi SW 6.9 mph - N/A   Clear
4:15 PM 77.0 °F 50.0 °F 39% 30.06 in 10.0 mi SW 6.9 mph - N/A   Clear
4:35 PM 77.0 °F 50.0 °F 39% 30.05 in 10.0 mi SSW 5.8 mph - N/A   Clear
4:55 PM 78.8 °F 50.0 °F 36% 30.04 in 10.0 mi SW 5.8 mph - N/A   Clear
5:15 PM 77.0 °F 51.8 °F 41% 30.04 in 10.0 mi SSW 6.9 mph - N/A   Clear
5:35 PM 77.0 °F 53.6 °F 44% 30.04 in 10.0 mi SSW 8.1 mph - N/A   Clear
5:55 PM 75.2 °F 55.4 °F 50% 30.04 in 10.0 mi SSW 9.2 mph - N/A   Clear
6:15 PM 73.4 °F 55.4 °F 53% 30.04 in 10.0 mi SW 9.2 mph - N/A   Clear
6:35 PM 73.4 °F 55.4 °F 53% 30.05 in 10.0 mi WSW 6.9 mph - N/A   Clear
6:55 PM 73.4 °F 55.4 °F 53% 30.05 in 10.0 mi West 5.8 mph - N/A   Clear
7:15 PM 71.6 °F 53.6 °F 53% 30.05 in 10.0 mi West 5.8 mph - N/A   Clear
7:35 PM 69.8 °F 55.4 °F 60% 30.05 in 10.0 mi WNW 3.5 mph - N/A   Clear
7:55 PM 69.8 °F 53.6 °F 56% 30.05 in 10.0 mi NW 3.5 mph - N/A   Clear
8:15 PM 69.8 °F 53.6 °F 56% 30.06 in 10.0 mi Calm Calm - N/A   Clear
8:35 PM 68.0 °F 53.6 °F 60% 30.05 in 10.0 mi Calm Calm - N/A   Clear
8:55 PM 68.0 °F 53.6 °F 60% 30.05 in 10.0 mi Calm Calm - N/A   Clear
9:15 PM 68.0 °F 51.8 °F 56% 30.06 in 10.0 mi North 3.5 mph - N/A   Clear
9:35 PM 68.0 °F 51.8 °F 56% 30.06 in 10.0 mi Calm Calm - N/A   Clear
9:55 PM 66.2 °F 51.8 °F 60% 30.06 in 10.0 mi Calm Calm - N/A   Clear
10:15 PM 64.4 °F 51.8 °F 64% 30.06 in 10.0 mi Calm Calm - N/A   Clear
10:35 PM 64.4 °F 51.8 °F 64% 30.06 in 10.0 mi NNE 3.5 mph - N/A   Clear
10:55 PM 64.4 °F 51.8 °F 64% 30.06 in 10.0 mi NE 3.5 mph - N/A   Clear
11:15 PM 62.6 °F 53.6 °F 72% 30.06 in 10.0 mi ENE 8.1 mph - N/A   Clear
11:35 PM 62.6 °F 53.6 °F 72% 30.06 in 10.0 mi ENE 4.6 mph - N/A   Clear
11:55 PM 62.6 °F 53.6 °F 72% 30.05 in 10.0 mi ENE 8.1 mph - N/A   Clear